Time,TemperatureF,DewpointF,PressureIn,WindDirection,WindDirectionDegrees,WindSpeedMPH,WindSpeedGustMPH,Humidity,HourlyPrecipIn,Conditions,Clouds,dailyrainin,SolarRadiationWatts/m^2,SoftwareType,DateUTC
2013-04-06 00:03:00,54.7,51.4,30.21,East,88,1.0,5.0,89,0.00,,,0.00,0.0,meteohub,2013-04-06 10:03:00,
2013-04-06 00:08:00,54.3,51.4,30.21,East,88,2.0,5.0,90,0.00,,,0.00,0.0,meteohub,2013-04-06 10:08:00,
2013-04-06 00:13:00,54.0,51.4,30.21,East,88,2.0,3.0,91,0.00,,,0.00,0.0,meteohub,2013-04-06 10:13:00,
2013-04-06 00:18:00,53.8,51.4,30.20,East,87,2.0,3.0,92,0.00,,,0.00,0.0,meteohub,2013-04-06 10:18:00,
2013-04-06 00:23:00,53.6,51.1,30.20,East,89,1.0,3.0,91,0.00,,,0.00,0.0,meteohub,2013-04-06 10:23:00,
2013-04-06 00:28:00,53.2,50.9,30.20,East,88,2.0,5.0,92,0.00,,,0.00,0.0,meteohub,2013-04-06 10:28:00,
2013-04-06 00:33:00,53.1,51.1,30.20,East,89,2.0,5.0,93,0.00,,,0.00,0.0,meteohub,2013-04-06 10:33:00,
2013-04-06 00:38:00,53.1,51.1,30.20,East,88,2.0,5.0,93,0.00,,,0.00,0.0,meteohub,2013-04-06 10:38:00,
2013-04-06 00:43:00,53.1,51.1,30.20,East,82,2.0,6.0,93,0.00,,,0.00,0.0,meteohub,2013-04-06 10:43:00,
2013-04-06 00:48:00,53.1,51.1,30.20,East,90,1.0,6.0,93,0.00,,,0.00,0.0,meteohub,2013-04-06 10:48:00,
2013-04-06 00:53:00,53.4,51.4,30.20,East,84,5.0,6.0,93,0.00,,,0.00,0.0,meteohub,2013-04-06 10:53:00,
2013-04-06 00:58:00,53.2,50.9,30.19,East,85,3.0,5.0,92,0.00,,,0.00,0.0,meteohub,2013-04-06 10:58:00,
2013-04-06 01:03:00,53.2,50.9,30.19,East,90,3.0,5.0,92,0.00,,,0.00,0.0,meteohub,2013-04-06 11:03:00,
2013-04-06 01:08:00,53.1,51.1,30.19,East,89,2.0,5.0,93,0.00,,,0.00,0.0,meteohub,2013-04-06 11:08:00,
2013-04-06 01:13:00,53.2,51.3,30.19,ENE,78,2.0,5.0,93,0.00,,,0.00,0.0,meteohub,2013-04-06 11:13:00,
2013-04-06 01:18:00,53.6,51.3,30.19,East,81,3.0,5.0,92,0.00,,,0.00,0.0,meteohub,2013-04-06 11:18:00,
2013-04-06 01:23:00,53.6,51.3,30.19,East,84,2.0,5.0,92,0.00,,,0.00,0.0,meteohub,2013-04-06 11:23:00,
2013-04-06 01:28:00,53.6,51.3,30.19,ENE,78,2.0,5.0,92,0.00,,,0.00,0.0,meteohub,2013-04-06 11:28:00,
2013-04-06 01:33:00,53.2,50.7,30.18,East,83,3.0,5.0,91,0.00,,,0.00,0.0,meteohub,2013-04-06 11:33:00,
2013-04-06 01:38:00,52.9,50.5,30.18,East,82,2.0,5.0,92,0.00,,,0.00,0.0,meteohub,2013-04-06 11:38:00,
2013-04-06 01:43:00,52.7,50.4,30.18,East,84,5.0,5.0,92,0.00,,,0.00,0.0,meteohub,2013-04-06 11:43:00,
2013-04-06 01:48:00,53.2,51.6,30.18,East,88,3.0,5.0,94,0.00,,,0.00,0.0,meteohub,2013-04-06 11:48:00,
2013-04-06 01:53:00,53.2,50.7,30.18,East,84,2.0,6.0,91,0.00,,,0.00,0.0,meteohub,2013-04-06 11:53:00,
2013-04-06 01:58:00,53.4,51.1,30.18,East,81,5.0,6.0,92,0.00,,,0.00,0.0,meteohub,2013-04-06 11:58:00,
2013-04-06 02:03:00,53.6,51.1,30.18,ENE,77,4.0,6.0,91,0.00,,,0.00,0.0,meteohub,2013-04-06 12:03:00,
2013-04-06 02:09:00,53.6,50.7,30.17,East,82,3.0,7.0,90,0.00,,,0.00,0.0,meteohub,2013-04-06 12:09:00,
2013-04-06 02:14:00,53.2,50.4,30.18,East,81,3.0,7.0,90,0.00,,,0.00,0.0,meteohub,2013-04-06 12:14:00,
2013-04-06 02:19:00,52.7,50.2,30.17,East,90,2.0,7.0,91,0.00,,,0.00,0.0,meteohub,2013-04-06 12:19:00,
2013-04-06 02:24:00,52.0,49.6,30.17,East,88,3.0,5.0,92,0.00,,,0.00,0.0,meteohub,2013-04-06 12:24:00,
2013-04-06 02:29:00,52.0,50.0,30.17,East,84,2.0,5.0,93,0.00,,,0.00,0.0,meteohub,2013-04-06 12:29:00,
2013-04-06 02:34:00,51.6,49.5,30.17,East,84,3.0,5.0,92,0.00,,,0.00,0.0,meteohub,2013-04-06 12:34:00,
2013-04-06 02:40:00,51.4,49.5,30.17,East,87,2.0,5.0,93,0.00,,,0.00,0.0,meteohub,2013-04-06 12:40:00,
2013-04-06 02:45:00,51.4,49.5,30.17,East,86,2.0,5.0,93,0.00,,,0.00,0.0,meteohub,2013-04-06 12:45:00,
2013-04-06 02:50:00,51.6,49.6,30.17,East,80,5.0,5.0,93,0.00,,,0.00,0.0,meteohub,2013-04-06 12:50:00,
2013-04-06 02:56:00,51.4,49.5,30.17,East,86,2.0,6.0,93,0.00,,,0.00,0.0,meteohub,2013-04-06 12:56:00,
2013-04-06 03:01:00,51.3,49.6,30.17,East,87,3.0,6.0,94,0.00,,,0.00,0.0,meteohub,2013-04-06 13:01:00,
2013-04-06 03:06:00,51.6,49.6,30.17,ENE,78,3.0,6.0,93,0.00,,,0.00,0.0,meteohub,2013-04-06 13:06:00,
2013-04-06 03:11:00,51.6,49.6,30.16,East,86,2.0,5.0,93,0.00,,,0.00,0.0,meteohub,2013-04-06 13:11:00,
2013-04-06 03:16:00,51.4,49.5,30.16,East,82,2.0,5.0,93,0.00,,,0.00,0.0,meteohub,2013-04-06 13:16:00,
2013-04-06 03:21:00,51.4,49.8,30.16,East,86,2.0,5.0,94,0.00,,,0.00,0.0,meteohub,2013-04-06 13:21:00,
2013-04-06 03:26:00,51.3,49.3,30.16,East,88,2.0,5.0,93,0.00,,,0.00,0.0,meteohub,2013-04-06 13:26:00,
2013-04-06 03:31:00,51.1,49.1,30.16,East,92,2.0,5.0,93,0.00,,,0.00,0.0,meteohub,2013-04-06 13:31:00,
2013-04-06 03:37:00,51.4,49.8,30.16,East,92,3.0,5.0,94,0.00,,,0.00,0.0,meteohub,2013-04-06 13:37:00,
2013-04-06 03:43:00,52.2,50.2,30.16,East,89,3.0,5.0,93,0.00,,,0.00,0.0,meteohub,2013-04-06 13:43:00,
2013-04-06 03:50:00,52.0,49.5,30.16,East,92,3.0,5.0,91,0.00,,,0.00,0.0,meteohub,2013-04-06 13:50:00,
2013-04-06 03:56:00,51.4,49.5,30.16,East,86,5.0,6.0,93,0.00,,,0.00,0.0,meteohub,2013-04-06 13:56:00,
2013-04-06 04:01:00,51.3,49.3,30.16,East,88,3.0,6.0,93,0.00,,,0.00,0.0,meteohub,2013-04-06 14:01:00,
2013-04-06 04:06:00,50.7,48.7,30.16,East,86,3.0,5.0,93,0.00,,,0.00,0.0,meteohub,2013-04-06 14:06:00,
2013-04-06 04:11:00,50.7,49.1,30.16,East,86,3.0,5.0,94,0.00,,,0.00,0.0,meteohub,2013-04-06 14:11:00,
2013-04-06 04:16:00,50.5,48.6,30.16,East,93,2.0,5.0,93,0.00,,,0.00,0.0,meteohub,2013-04-06 14:16:00,
2013-04-06 04:21:00,50.5,48.9,30.17,East,82,3.0,5.0,94,0.00,,,0.00,0.0,meteohub,2013-04-06 14:21:00,
2013-04-06 04:26:00,51.3,49.3,30.17,East,88,3.0,5.0,93,0.00,,,0.00,0.0,meteohub,2013-04-06 14:26:00,
2013-04-06 04:31:00,51.4,49.3,30.17,East,84,2.0,5.0,92,0.00,,,0.00,0.0,meteohub,2013-04-06 14:31:00,
2013-04-06 04:36:00,51.4,49.3,30.17,East,86,3.0,5.0,92,0.00,,,0.00,0.0,meteohub,2013-04-06 14:36:00,
2013-04-06 04:41:00,51.1,49.1,30.17,East,84,1.0,5.0,93,0.00,,,0.00,0.0,meteohub,2013-04-06 14:41:00,
2013-04-06 04:49:00,50.9,48.7,30.17,East,85,3.0,5.0,92,0.00,,,0.00,0.0,meteohub,2013-04-06 14:49:00,
2013-04-06 04:54:00,50.7,48.7,30.17,East,82,3.0,5.0,93,0.00,,,0.00,0.0,meteohub,2013-04-06 14:54:00,
2013-04-06 04:59:00,50.7,48.7,30.17,East,91,5.0,5.0,93,0.00,,,0.00,0.0,meteohub,2013-04-06 14:59:00,
2013-04-06 05:04:00,50.7,48.7,30.17,East,85,6.0,6.0,93,0.00,,,0.00,0.0,meteohub,2013-04-06 15:04:00,
2013-04-06 05:09:00,51.3,49.1,30.17,East,91,3.0,5.0,92,0.00,,,0.00,0.0,meteohub,2013-04-06 15:09:00,
2013-04-06 05:14:00,50.9,48.7,30.17,East,87,3.0,6.0,92,0.00,,,0.00,0.0,meteohub,2013-04-06 15:14:00,
2013-04-06 05:19:00,50.7,48.6,30.17,East,86,2.0,6.0,92,0.00,,,0.00,0.0,meteohub,2013-04-06 15:19:00,
2013-04-06 05:25:00,50.4,48.2,30.17,East,87,2.0,6.0,92,0.00,,,0.00,0.0,meteohub,2013-04-06 15:25:00,
2013-04-06 05:30:00,50.4,48.4,30.18,East,88,3.0,5.0,93,0.00,,,0.00,0.0,meteohub,2013-04-06 15:30:00,
2013-04-06 05:36:00,50.5,48.9,30.18,East,85,3.0,5.0,94,0.00,,,0.00,0.0,meteohub,2013-04-06 15:36:00,
2013-04-06 05:41:00,50.5,48.6,30.18,East,87,5.0,6.0,93,0.00,,,0.00,0.0,meteohub,2013-04-06 15:41:00,
2013-04-06 05:46:00,50.9,48.9,30.18,East,88,3.0,6.0,93,0.00,,,0.00,0.0,meteohub,2013-04-06 15:46:00,
2013-04-06 05:52:00,50.5,48.4,30.18,East,93,1.0,6.0,92,0.00,,,0.00,0.0,meteohub,2013-04-06 15:52:00,
2013-04-06 05:57:00,50.0,48.0,30.18,East,92,3.0,6.0,93,0.00,,,0.00,0.0,meteohub,2013-04-06 15:57:00,
2013-04-06 06:02:00,50.2,48.6,30.18,East,86,2.0,5.0,94,0.00,,,0.00,0.0,meteohub,2013-04-06 16:02:00,
2013-04-06 06:07:00,50.2,48.2,30.19,East,84,5.0,5.0,93,0.00,,,0.00,0.0,meteohub,2013-04-06 16:07:00,
2013-04-06 06:12:00,50.7,48.7,30.18,East,90,2.0,6.0,93,0.00,,,0.00,0.0,meteohub,2013-04-06 16:12:00,
2013-04-06 06:17:00,50.7,48.6,30.18,East,90,2.0,6.0,92,0.00,,,0.00,0.0,meteohub,2013-04-06 16:17:00,
2013-04-06 06:22:00,50.5,48.4,30.19,East,89,3.0,6.0,92,0.00,,,0.00,7.0,meteohub,2013-04-06 16:22:00,
2013-04-06 06:27:00,50.2,48.2,30.19,East,80,3.0,6.0,93,0.00,,,0.00,9.0,meteohub,2013-04-06 16:27:00,
2013-04-06 06:32:00,50.4,48.7,30.19,East,92,3.0,6.0,94,0.00,,,0.00,12.0,meteohub,2013-04-06 16:32:00,
2013-04-06 06:37:00,50.5,48.6,30.19,East,88,2.0,6.0,93,0.00,,,0.00,14.0,meteohub,2013-04-06 16:37:00,
2013-04-06 06:42:00,50.2,48.6,30.19,East,92,2.0,5.0,94,0.00,,,0.00,16.0,meteohub,2013-04-06 16:42:00,
2013-04-06 06:48:00,50.2,48.6,30.19,East,90,2.0,5.0,94,0.00,,,0.00,18.0,meteohub,2013-04-06 16:48:00,
2013-04-06 06:53:00,51.3,49.3,30.19,ENE,76,4.0,5.0,93,0.00,,,0.00,19.0,meteohub,2013-04-06 16:53:00,
2013-04-06 06:58:00,52.0,49.5,30.19,East,91,2.0,5.0,91,0.00,,,0.00,21.0,meteohub,2013-04-06 16:58:00,
2013-04-06 07:03:00,51.4,49.3,30.19,East,93,2.0,5.0,92,0.00,,,0.00,25.0,meteohub,2013-04-06 17:03:00,
2013-04-06 07:08:00,51.1,48.9,30.19,East,94,2.0,5.0,92,0.00,,,0.00,26.0,meteohub,2013-04-06 17:08:00,
2013-04-06 07:13:00,50.9,48.9,30.19,East,87,3.0,5.0,93,0.00,,,0.00,28.0,meteohub,2013-04-06 17:13:00,
2013-04-06 07:18:00,51.3,49.3,30.19,East,93,3.0,3.0,93,0.00,,,0.00,28.0,meteohub,2013-04-06 17:18:00,
2013-04-06 07:23:00,51.6,49.6,30.19,East,93,2.0,5.0,93,0.00,,,0.00,30.0,meteohub,2013-04-06 17:23:00,
2013-04-06 07:28:00,52.2,49.8,30.20,East,88,3.0,5.0,92,0.00,,,0.00,30.0,meteohub,2013-04-06 17:28:00,
2013-04-06 07:33:00,52.2,50.2,30.20,East,90,1.0,5.0,93,0.00,,,0.00,32.0,meteohub,2013-04-06 17:33:00,
2013-04-06 07:38:00,52.5,50.5,30.20,East,92,2.0,5.0,93,0.00,,,0.00,33.0,meteohub,2013-04-06 17:38:00,
2013-04-06 07:43:00,52.9,50.9,30.21,East,92,2.0,5.0,93,0.00,,,0.00,33.0,meteohub,2013-04-06 17:43:00,
2013-04-06 07:48:00,53.8,52.3,30.21,East,92,0.0,3.0,95,0.00,,,0.00,35.0,meteohub,2013-04-06 17:48:00,
2013-04-06 07:53:00,54.7,52.3,30.21,East,92,1.0,3.0,92,0.00,,,0.00,37.0,meteohub,2013-04-06 17:53:00,
2013-04-06 07:58:00,55.4,52.9,30.21,East,91,1.0,3.0,91,0.00,,,0.00,37.0,meteohub,2013-04-06 17:58:00,
2013-04-06 08:03:00,56.5,54.1,30.21,East,91,0.0,3.0,92,0.00,,,0.00,39.0,meteohub,2013-04-06 18:03:00,
2013-04-06 08:08:00,57.7,55.4,30.21,East,93,1.0,3.0,92,0.00,,,0.00,39.0,meteohub,2013-04-06 18:08:00,
2013-04-06 08:13:00,58.3,55.0,30.21,East,92,0.0,2.0,89,0.00,,,0.00,40.0,meteohub,2013-04-06 18:13:00,
2013-04-06 08:19:00,59.0,56.3,30.21,East,92,1.0,2.0,91,0.00,,,0.00,42.0,meteohub,2013-04-06 18:19:00,
2013-04-06 08:24:00,60.3,58.3,30.22,SSW,193,0.0,2.0,93,0.00,,,0.00,42.0,meteohub,2013-04-06 18:24:00,
2013-04-06 08:29:00,61.3,58.6,30.22,WNW,287,0.0,2.0,91,0.00,,,0.00,44.0,meteohub,2013-04-06 18:29:00,
2013-04-06 08:34:00,62.2,59.2,30.22,WNW,288,2.0,3.0,90,0.00,,,0.00,44.0,meteohub,2013-04-06 18:34:00,
2013-04-06 08:39:00,63.1,59.9,30.22,SW,234,0.0,3.0,89,0.00,,,0.00,47.0,meteohub,2013-04-06 18:39:00,
2013-04-06 08:44:00,63.5,60.3,30.22,WNW,288,1.0,3.0,89,0.00,,,0.00,49.0,meteohub,2013-04-06 18:44:00,
2013-04-06 08:49:00,63.9,60.6,30.22,West,262,1.0,3.0,89,0.00,,,0.00,56.0,meteohub,2013-04-06 18:49:00,
2013-04-06 08:55:00,64.2,60.6,30.22,West,261,1.0,3.0,88,0.00,,,0.00,77.0,meteohub,2013-04-06 18:55:00,
2013-04-06 09:00:00,64.6,60.6,30.22,West,260,0.0,4.0,87,0.00,,,0.00,91.0,meteohub,2013-04-06 19:00:00,
2013-04-06 09:05:00,65.3,61.7,30.22,NW,313,2.0,4.0,88,0.00,,,0.00,125.0,meteohub,2013-04-06 19:05:00,
2013-04-06 09:10:00,65.7,61.3,30.22,SW,223,0.0,4.0,86,0.00,,,0.00,109.0,meteohub,2013-04-06 19:10:00,
2013-04-06 09:16:00,65.8,61.9,30.22,WSW,245,3.0,4.0,87,0.00,,,0.00,125.0,meteohub,2013-04-06 19:16:00,
2013-04-06 09:21:00,65.7,61.3,30.23,WSW,247,2.0,4.0,86,0.00,,,0.00,120.0,meteohub,2013-04-06 19:21:00,
2013-04-06 09:26:00,65.5,61.5,30.23,WSW,246,0.0,4.0,87,0.00,,,0.00,185.0,meteohub,2013-04-06 19:26:00,
2013-04-06 09:31:00,65.7,61.3,30.23,WNW,290,1.0,4.0,86,0.00,,,0.00,239.0,meteohub,2013-04-06 19:31:00,
2013-04-06 09:36:00,65.5,61.9,30.22,WNW,292,2.0,6.0,88,0.00,,,0.00,253.0,meteohub,2013-04-06 19:36:00,
2013-04-06 09:41:00,65.5,61.2,30.23,West,263,1.0,6.0,86,0.00,,,0.00,209.0,meteohub,2013-04-06 19:41:00,
2013-04-06 09:48:00,65.1,61.2,30.22,WSW,241,0.0,6.0,87,0.00,,,0.00,239.0,meteohub,2013-04-06 19:48:00,
2013-04-06 09:53:00,65.1,61.5,30.22,WNW,292,0.0,4.0,88,0.00,,,0.00,216.0,meteohub,2013-04-06 19:53:00,
2013-04-06 09:58:00,65.5,61.5,30.22,NW,313,0.0,4.0,87,0.00,,,0.00,244.0,meteohub,2013-04-06 19:58:00,
2013-04-06 10:03:00,65.5,60.8,30.22,NW,314,0.0,4.0,85,0.00,,,0.00,264.0,meteohub,2013-04-06 20:03:00,
2013-04-06 10:08:00,65.7,61.0,30.22,WNW,292,0.0,4.0,85,0.00,,,0.00,322.0,meteohub,2013-04-06 20:08:00,
2013-04-06 10:11:00,65.8,61.5,30.22,WNW,292,0.0,4.0,86,0.00,,,0.00,279.0,meteohub,2013-04-06 20:11:00,
2013-04-06 10:17:00,66.4,62.1,30.22,WNW,291,0.0,3.0,86,0.00,,,0.00,322.0,meteohub,2013-04-06 20:17:00,
2013-04-06 10:26:00,67.8,62.8,30.22,West,278,0.0,4.0,84,0.00,,,0.00,329.0,meteohub,2013-04-06 20:26:00,
2013-04-06 10:31:00,68.4,62.6,30.22,WSW,248,2.0,4.0,82,0.00,,,0.00,904.0,meteohub,2013-04-06 20:31:00,
2013-04-06 10:37:00,68.2,63.1,30.22,West,267,4.0,4.0,84,0.00,,,0.00,895.0,meteohub,2013-04-06 20:37:00,
2013-04-06 10:42:00,68.2,62.8,30.22,NW,311,2.0,8.0,83,0.00,,,0.00,541.0,meteohub,2013-04-06 20:42:00,
2013-04-06 10:47:00,68.4,62.6,30.22,WSW,241,1.0,8.0,82,0.00,,,0.00,1000.0,meteohub,2013-04-06 20:47:00,
2013-04-06 10:52:00,68.4,63.0,30.22,West,267,2.0,6.0,83,0.00,,,0.00,1027.0,meteohub,2013-04-06 20:52:00,
2013-04-06 10:57:00,68.5,63.1,30.22,WNW,288,1.0,6.0,83,0.00,,,0.00,824.0,meteohub,2013-04-06 20:57:00,
2013-04-06 11:02:00,69.3,63.5,30.22,NW,311,5.0,6.0,82,0.00,,,0.00,1078.0,meteohub,2013-04-06 21:02:00,
2013-04-06 11:07:00,69.3,63.1,30.22,WSW,246,3.0,6.0,81,0.00,,,0.00,429.0,meteohub,2013-04-06 21:07:00,
2013-04-06 11:12:00,69.1,62.6,30.22,WSW,242,2.0,5.0,80,0.00,,,0.00,432.0,meteohub,2013-04-06 21:12:00,
2013-04-06 11:17:00,69.1,63.0,30.22,West,265,4.0,5.0,81,0.00,,,0.00,408.0,meteohub,2013-04-06 21:17:00,
2013-04-06 11:22:00,69.3,63.1,30.22,NW,317,6.0,6.0,81,0.00,,,0.00,461.0,meteohub,2013-04-06 21:22:00,
2013-04-06 11:27:00,69.1,62.6,30.22,WSW,253,4.0,8.0,80,0.00,,,0.00,404.0,meteohub,2013-04-06 21:27:00,
2013-04-06 11:32:00,69.3,62.8,30.22,SW,220,4.0,8.0,80,0.00,,,0.00,603.0,meteohub,2013-04-06 21:32:00,
2013-04-06 11:37:00,69.6,62.8,30.22,WNW,300,4.0,8.0,79,0.00,,,0.00,1055.0,meteohub,2013-04-06 21:37:00,
2013-04-06 11:42:00,69.8,63.0,30.21,WSW,246,2.0,7.0,79,0.00,,,0.00,336.0,meteohub,2013-04-06 21:42:00,
2013-04-06 11:47:00,70.0,63.1,30.22,SW,226,0.0,7.0,79,0.00,,,0.00,429.0,meteohub,2013-04-06 21:47:00,
2013-04-06 11:52:00,70.5,63.7,30.21,WNW,298,2.0,7.0,79,0.00,,,0.00,471.0,meteohub,2013-04-06 21:52:00,
2013-04-06 11:58:00,70.5,63.0,30.21,West,262,1.0,6.0,77,0.00,,,0.00,826.0,meteohub,2013-04-06 21:58:00,
2013-04-06 12:03:00,70.3,62.8,30.21,WSW,238,0.0,6.0,77,0.00,,,0.00,1095.0,meteohub,2013-04-06 22:03:00,
2013-04-06 12:08:00,70.3,63.5,30.21,West,265,3.0,6.0,79,0.00,,,0.00,1095.0,meteohub,2013-04-06 22:08:00,
2013-04-06 12:13:00,71.2,64.0,30.21,WNW,292,2.0,5.0,78,0.00,,,0.00,1095.0,meteohub,2013-04-06 22:13:00,
2013-04-06 12:18:00,71.6,63.3,30.20,North,0,0.0,5.0,75,0.00,,,0.00,1276.0,meteohub,2013-04-06 22:18:00,
2013-04-06 12:23:00,72.0,64.0,30.20,NNW,341,1.0,7.0,76,0.00,,,0.00,1206.0,meteohub,2013-04-06 22:23:00,
2013-04-06 12:28:00,72.0,64.0,30.20,WNW,299,1.0,8.0,76,0.00,,,0.00,466.0,meteohub,2013-04-06 22:28:00,
2013-04-06 12:33:00,71.8,63.9,30.19,NW,307,1.0,8.0,76,0.00,,,0.00,1007.0,meteohub,2013-04-06 22:33:00,
2013-04-06 12:38:00,72.5,64.0,30.19,NW,308,2.0,8.0,75,0.00,,,0.00,1278.0,meteohub,2013-04-06 22:38:00,
2013-04-06 12:43:00,72.5,64.6,30.19,NW,319,3.0,9.0,76,0.00,,,0.00,425.0,meteohub,2013-04-06 22:43:00,
2013-04-06 12:48:00,72.3,63.9,30.19,WSW,245,2.0,9.0,75,0.00,,,0.00,404.0,meteohub,2013-04-06 22:48:00,
2013-04-06 12:53:00,71.8,63.9,30.19,WSW,254,0.0,9.0,76,0.00,,,0.00,432.0,meteohub,2013-04-06 22:53:00,
2013-04-06 12:58:00,71.6,64.0,30.18,West,270,1.0,5.0,77,0.00,,,0.00,561.0,meteohub,2013-04-06 22:58:00,
2013-04-06 13:03:00,72.0,64.0,30.18,WNW,288,0.0,9.0,76,0.00,,,0.00,1376.0,meteohub,2013-04-06 23:03:00,
2013-04-06 13:08:00,71.4,63.9,30.18,West,263,1.0,9.0,77,0.00,,,0.00,294.0,meteohub,2013-04-06 23:08:00,
2013-04-06 13:13:00,71.1,63.9,30.18,NW,313,0.0,9.0,78,0.00,,,0.00,424.0,meteohub,2013-04-06 23:13:00,
2013-04-06 13:18:00,70.9,64.0,30.18,SW,236,4.0,9.0,79,0.00,,,0.00,466.0,meteohub,2013-04-06 23:18:00,
2013-04-06 13:23:00,70.7,64.2,30.17,WSW,252,3.0,7.0,80,0.00,,,0.00,401.0,meteohub,2013-04-06 23:23:00,
2013-04-06 13:28:00,70.7,63.9,30.17,SW,215,0.0,7.0,79,0.00,,,0.00,1085.0,meteohub,2013-04-06 23:28:00,
2013-04-06 13:33:00,71.4,64.9,30.17,SW,228,1.0,7.0,80,0.00,,,0.00,1216.0,meteohub,2013-04-06 23:33:00,
2013-04-06 13:38:00,72.1,64.6,30.17,SW,226,1.0,6.0,77,0.00,,,0.00,991.0,meteohub,2013-04-06 23:38:00,
2013-04-06 13:43:00,72.1,64.6,30.17,West,272,0.0,7.0,77,0.00,,,0.00,459.0,meteohub,2013-04-06 23:43:00,
2013-04-06 13:48:00,72.3,63.9,30.16,SW,236,6.0,7.0,75,0.00,,,0.00,279.0,meteohub,2013-04-06 23:48:00,
2013-04-06 13:53:00,71.6,64.4,30.16,SW,231,0.0,8.0,78,0.00,,,0.00,1118.0,meteohub,2013-04-06 23:53:00,
2013-04-06 13:58:00,71.2,63.7,30.16,WSW,246,0.0,8.0,77,0.00,,,0.00,1143.0,meteohub,2013-04-06 23:58:00,
2013-04-06 14:03:00,71.4,63.5,30.15,West,272,2.0,8.0,76,0.00,,,0.00,425.0,meteohub,2013-04-07 00:03:00,
2013-04-06 14:08:00,71.6,64.0,30.15,WNW,302,2.0,7.0,77,0.00,,,0.00,359.0,meteohub,2013-04-07 00:08:00,
2013-04-06 14:13:00,72.3,65.1,30.15,West,267,3.0,8.0,78,0.00,,,0.00,1164.0,meteohub,2013-04-07 00:13:00,
2013-04-06 14:18:00,72.3,63.9,30.15,SSW,200,1.0,8.0,75,0.00,,,0.00,415.0,meteohub,2013-04-07 00:18:00,
2013-04-06 14:23:00,72.3,64.8,30.15,West,273,3.0,8.0,77,0.00,,,0.00,338.0,meteohub,2013-04-07 00:23:00,
2013-04-06 14:28:00,72.0,64.4,30.15,WSW,250,0.0,8.0,77,0.00,,,0.00,309.0,meteohub,2013-04-07 00:28:00,
2013-04-06 14:33:00,71.2,64.4,30.15,West,268,1.0,6.0,79,0.00,,,0.00,448.0,meteohub,2013-04-07 00:33:00,
2013-04-06 14:38:00,71.2,64.8,30.14,NW,317,4.0,7.0,80,0.00,,,0.00,1079.0,meteohub,2013-04-07 00:38:00,
2013-04-06 14:44:00,71.6,64.4,30.15,WSW,239,2.0,7.0,78,0.00,,,0.00,353.0,meteohub,2013-04-07 00:44:00,
2013-04-06 14:49:00,71.4,64.6,30.14,WNW,296,0.0,7.0,79,0.00,,,0.00,338.0,meteohub,2013-04-07 00:49:00,
2013-04-06 14:54:00,71.6,64.4,30.14,SW,229,2.0,6.0,78,0.00,,,0.00,1046.0,meteohub,2013-04-07 00:54:00,
2013-04-06 14:59:00,71.6,64.8,30.14,SSE,160,0.0,6.0,79,0.00,,,0.00,403.0,meteohub,2013-04-07 00:59:00,
2013-04-06 15:04:00,71.8,64.6,30.14,West,265,2.0,6.0,78,0.00,,,0.00,432.0,meteohub,2013-04-07 01:04:00,
2013-04-06 15:10:00,71.8,64.6,30.14,NW,310,5.0,7.0,78,0.00,,,0.00,1144.0,meteohub,2013-04-07 01:10:00,
2013-04-06 15:15:00,71.8,64.9,30.14,WSW,240,6.0,7.0,79,0.00,,,0.00,371.0,meteohub,2013-04-07 01:15:00,
2013-04-06 15:20:00,71.2,64.4,30.14,West,263,1.0,9.0,79,0.00,,,0.00,432.0,meteohub,2013-04-07 01:20:00,
2013-04-06 15:25:00,70.7,63.9,30.14,WSW,248,2.0,9.0,79,0.00,,,0.00,434.0,meteohub,2013-04-07 01:25:00,
2013-04-06 15:30:00,70.5,64.4,30.14,WSW,251,3.0,6.0,81,0.00,,,0.00,461.0,meteohub,2013-04-07 01:30:00,
2013-04-06 15:36:00,70.5,64.0,30.14,SSW,210,0.0,6.0,80,0.00,,,0.00,717.0,meteohub,2013-04-07 01:36:00,
2013-04-06 15:41:00,70.5,64.4,30.14,WNW,292,4.0,6.0,81,0.00,,,0.00,381.0,meteohub,2013-04-07 01:41:00,
2013-04-06 15:46:00,70.9,64.4,30.14,WNW,289,1.0,6.0,80,0.00,,,0.00,802.0,meteohub,2013-04-07 01:46:00,
2013-04-06 15:51:00,70.9,64.4,30.14,West,265,0.0,6.0,80,0.00,,,0.00,364.0,meteohub,2013-04-07 01:51:00,
2013-04-06 15:56:00,70.9,64.0,30.14,WSW,254,0.0,6.0,79,0.00,,,0.00,795.0,meteohub,2013-04-07 01:56:00,
2013-04-06 16:01:00,71.2,64.4,30.14,SSW,211,3.0,5.0,79,0.00,,,0.00,341.0,meteohub,2013-04-07 02:01:00,
2013-04-06 16:06:00,70.5,63.7,30.14,NW,317,2.0,5.0,79,0.00,,,0.00,250.0,meteohub,2013-04-07 02:06:00,
2013-04-06 16:11:00,70.2,64.0,30.14,WSW,256,3.0,5.0,81,0.00,,,0.00,260.0,meteohub,2013-04-07 02:11:00,
2013-04-06 16:17:00,70.0,63.9,30.14,NW,313,5.0,6.0,81,0.00,,,0.00,267.0,meteohub,2013-04-07 02:17:00,
2013-04-06 16:22:00,69.8,64.0,30.14,WSW,242,0.0,6.0,82,0.00,,,0.00,278.0,meteohub,2013-04-07 02:22:00,
2013-04-06 16:27:00,69.4,63.7,30.14,SW,230,0.0,6.0,82,0.00,,,0.00,193.0,meteohub,2013-04-07 02:27:00,
2013-04-06 16:32:00,69.3,63.9,30.14,WSW,239,4.0,6.0,83,0.00,,,0.00,311.0,meteohub,2013-04-07 02:32:00,
2013-04-06 16:37:00,68.7,63.3,30.14,WNW,285,2.0,6.0,83,0.00,,,0.00,243.0,meteohub,2013-04-07 02:37:00,
2013-04-06 16:42:00,68.5,63.9,30.14,WSW,241,3.0,6.0,85,0.00,,,0.00,200.0,meteohub,2013-04-07 02:42:00,
2013-04-06 16:47:00,68.4,63.7,30.14,WSW,250,0.0,6.0,85,0.00,,,0.00,246.0,meteohub,2013-04-07 02:47:00,
2013-04-06 16:52:00,68.2,63.9,30.14,WSW,239,3.0,4.0,86,0.00,,,0.00,185.0,meteohub,2013-04-07 02:52:00,
2013-04-06 16:57:00,67.8,63.5,30.14,SW,230,0.0,4.0,86,0.00,,,0.00,155.0,meteohub,2013-04-07 02:57:00,
2013-04-06 17:02:00,67.6,63.7,30.14,West,276,0.0,4.0,87,0.00,,,0.00,125.0,meteohub,2013-04-07 03:02:00,
2013-04-06 17:07:00,67.5,63.5,30.13,WSW,249,1.0,4.0,87,0.00,,,0.00,107.0,meteohub,2013-04-07 03:07:00,
2013-04-06 17:12:00,67.3,63.7,30.13,West,278,1.0,3.0,88,0.00,,,0.00,84.0,meteohub,2013-04-07 03:12:00,
2013-04-06 17:17:00,67.1,63.7,30.13,WSW,244,0.0,3.0,89,0.00,,,0.00,84.0,meteohub,2013-04-07 03:17:00,
2013-04-06 17:23:00,66.9,63.9,30.13,WSW,244,0.0,3.0,90,0.00,,,0.00,93.0,meteohub,2013-04-07 03:23:00,
2013-04-06 17:28:00,66.9,63.9,30.14,West,278,2.0,3.0,90,0.00,,,0.00,63.0,meteohub,2013-04-07 03:28:00,
2013-04-06 17:33:00,66.7,64.4,30.14,West,271,1.0,4.0,92,0.00,,,0.00,69.0,meteohub,2013-04-07 03:33:00,
2013-04-06 17:38:00,66.6,64.2,30.14,West,271,0.0,4.0,92,0.00,,,0.00,65.0,meteohub,2013-04-07 03:38:00,
2013-04-06 17:43:00,66.4,64.0,30.14,WSW,247,1.0,4.0,92,0.00,,,0.00,62.0,meteohub,2013-04-07 03:43:00,
2013-04-06 17:48:00,66.4,64.2,30.14,WSW,238,1.0,3.0,93,0.00,,,0.00,60.0,meteohub,2013-04-07 03:48:00,
2013-04-06 17:53:00,66.0,63.9,30.14,West,267,0.0,3.0,93,0.00,,,0.00,58.0,meteohub,2013-04-07 03:53:00,
2013-04-06 17:58:00,65.8,63.7,30.14,West,267,1.0,3.0,93,0.00,,,0.00,40.0,meteohub,2013-04-07 03:58:00,
2013-04-06 18:00:00,65.8,63.7,30.15,West,267,1.0,3.0,93,0.00,,,0.00,44.0,meteohub,2013-04-07 04:00:00,
2013-04-06 18:06:00,65.7,63.5,30.15,West,270,2.0,2.0,93,0.00,,,0.00,63.0,meteohub,2013-04-07 04:06:00,
2013-04-06 18:10:00,65.5,63.7,30.15,West,269,0.0,2.0,94,0.00,,,0.00,39.0,meteohub,2013-04-07 04:10:00,
2013-04-06 18:15:00,65.5,63.7,30.15,West,270,0.0,2.0,94,0.00,,,0.00,26.0,meteohub,2013-04-07 04:15:00,
2013-04-06 18:21:00,65.3,63.5,30.15,West,269,0.0,2.0,94,0.00,,,0.00,14.0,meteohub,2013-04-07 04:21:00,
2013-04-06 18:26:00,65.1,63.3,30.15,West,269,0.0,1.0,94,0.00,,,0.00,12.0,meteohub,2013-04-07 04:26:00,
2013-04-06 18:31:00,65.1,63.3,30.15,West,269,0.0,1.0,94,0.00,,,0.00,7.0,meteohub,2013-04-07 04:31:00,
2013-04-06 18:36:00,64.9,63.1,30.15,West,269,0.0,1.0,94,0.00,,,0.00,0.0,meteohub,2013-04-07 04:36:00,
2013-04-06 18:41:00,64.8,63.0,30.15,West,269,0.0,1.0,94,0.00,,,0.00,0.0,meteohub,2013-04-07 04:41:00,
2013-04-06 18:46:00,64.8,63.3,30.16,North,0,0.0,1.0,95,0.00,,,0.00,0.0,meteohub,2013-04-07 04:46:00,
2013-04-06 18:51:00,64.6,63.1,30.16,West,269,0.0,1.0,95,0.00,,,0.00,0.0,meteohub,2013-04-07 04:51:00,
2013-04-06 18:56:00,64.6,63.1,30.16,West,271,0.0,1.0,95,0.00,,,0.00,0.0,meteohub,2013-04-07 04:56:00,
2013-04-06 19:01:00,64.2,62.8,30.16,West,270,0.0,1.0,95,0.00,,,0.00,0.0,meteohub,2013-04-07 05:01:00,
2013-04-06 19:06:00,64.0,62.6,30.16,West,270,0.0,1.0,95,0.00,,,0.00,0.0,meteohub,2013-04-07 05:06:00,
2013-04-06 19:11:00,64.0,62.6,30.16,West,269,0.0,1.0,95,0.00,,,0.00,0.0,meteohub,2013-04-07 05:11:00,
2013-04-06 19:16:00,63.9,62.4,30.16,West,270,0.0,1.0,95,0.00,,,0.00,0.0,meteohub,2013-04-07 05:16:00,
2013-04-06 19:21:00,63.7,61.9,30.16,West,271,0.0,1.0,94,0.00,,,0.00,0.0,meteohub,2013-04-07 05:21:00,
2013-04-06 19:26:00,63.0,60.6,30.16,West,269,0.0,1.0,92,0.00,,,0.00,0.0,meteohub,2013-04-07 05:26:00,
2013-04-06 19:32:00,62.4,60.1,30.17,West,271,0.0,1.0,92,0.00,,,0.00,0.0,meteohub,2013-04-07 05:32:00,
2013-04-06 19:39:00,61.3,58.1,30.17,West,271,0.0,1.0,89,0.00,,,0.00,0.0,meteohub,2013-04-07 05:39:00,
2013-04-06 19:44:00,60.3,56.1,30.17,ESE,122,0.0,1.0,86,0.00,,,0.00,0.0,meteohub,2013-04-07 05:44:00,
2013-04-06 19:49:00,59.4,55.2,30.17,ESE,119,1.0,2.0,86,0.00,,,0.00,0.0,meteohub,2013-04-07 05:49:00,
2013-04-06 19:54:00,58.8,55.0,30.17,ESE,121,1.0,2.0,87,0.00,,,0.00,0.0,meteohub,2013-04-07 05:54:00,
2013-04-06 19:59:00,58.6,54.5,30.18,ESE,120,0.0,2.0,86,0.00,,,0.00,0.0,meteohub,2013-04-07 05:59:00,
2013-04-06 20:04:00,58.5,54.7,30.18,ESE,120,0.0,3.0,87,0.00,,,0.00,0.0,meteohub,2013-04-07 06:04:00,
2013-04-06 20:10:00,57.9,54.1,30.18,ESE,118,1.0,3.0,87,0.00,,,0.00,0.0,meteohub,2013-04-07 06:10:00,
2013-04-06 20:15:00,57.6,53.8,30.18,ESE,118,0.0,3.0,87,0.00,,,0.00,0.0,meteohub,2013-04-07 06:15:00,
2013-04-06 20:20:00,57.0,53.2,30.19,ESE,117,1.0,3.0,87,0.00,,,0.00,0.0,meteohub,2013-04-07 06:20:00,
2013-04-06 20:26:00,56.8,54.0,30.19,ESE,118,2.0,3.0,90,0.00,,,0.00,0.0,meteohub,2013-04-07 06:26:00,
2013-04-06 20:31:00,56.7,53.8,30.19,ESE,118,0.0,3.0,90,0.00,,,0.00,0.0,meteohub,2013-04-07 06:31:00,
2013-04-06 20:36:00,56.5,52.9,30.19,ESE,105,2.0,3.0,88,0.00,,,0.00,0.0,meteohub,2013-04-07 06:36:00,
2013-04-06 20:41:00,56.1,52.7,30.19,ESE,111,3.0,3.0,88,0.00,,,0.00,0.0,meteohub,2013-04-07 06:41:00,
2013-04-06 20:42:00,56.1,52.3,30.19,ESE,113,1.0,3.0,87,0.00,,,0.00,0.0,meteohub,2013-04-07 06:42:00,
2013-04-06 20:47:00,56.5,52.3,30.19,ESE,108,1.0,3.0,86,0.00,,,0.00,0.0,meteohub,2013-04-07 06:47:00,
2013-04-06 20:52:00,56.5,51.4,30.19,ENE,76,3.0,3.0,83,0.00,,,0.00,0.0,meteohub,2013-04-07 06:52:00,
2013-04-06 20:57:00,57.0,52.2,30.19,East,93,0.0,5.0,84,0.00,,,0.00,0.0,meteohub,2013-04-07 06:57:00,
2013-04-06 21:02:00,56.8,52.0,30.20,East,81,2.0,5.0,84,0.00,,,0.00,0.0,meteohub,2013-04-07 07:02:00,
2013-04-06 21:07:00,56.1,51.6,30.20,East,91,3.0,5.0,85,0.00,,,0.00,0.0,meteohub,2013-04-07 07:07:00,
2013-04-06 21:12:00,55.8,51.3,30.20,East,89,2.0,3.0,85,0.00,,,0.00,0.0,meteohub,2013-04-07 07:12:00,
2013-04-06 21:17:00,55.8,50.7,30.20,East,84,3.0,3.0,83,0.00,,,0.00,0.0,meteohub,2013-04-07 07:17:00,
2013-04-06 21:22:00,56.5,50.4,30.21,East,80,1.0,5.0,80,0.00,,,0.00,0.0,meteohub,2013-04-07 07:22:00,
2013-04-06 21:27:00,56.5,50.4,30.21,ENE,76,3.0,5.0,80,0.00,,,0.00,0.0,meteohub,2013-04-07 07:27:00,
2013-04-06 21:32:00,56.7,49.8,30.21,ENE,75,3.0,5.0,78,0.00,,,0.00,0.0,meteohub,2013-04-07 07:32:00,
2013-04-06 21:37:00,56.7,50.9,30.21,East,90,2.0,7.0,81,0.00,,,0.00,0.0,meteohub,2013-04-07 07:37:00,
2013-04-06 21:42:00,55.9,50.5,30.21,ENE,78,2.0,7.0,82,0.00,,,0.00,0.0,meteohub,2013-04-07 07:42:00,
2013-04-06 21:47:00,55.8,50.7,30.21,ENE,78,2.0,5.0,83,0.00,,,0.00,0.0,meteohub,2013-04-07 07:47:00,
2013-04-06 21:52:00,55.2,50.2,30.21,East,87,3.0,4.0,83,0.00,,,0.00,0.0,meteohub,2013-04-07 07:52:00,
2013-04-06 21:57:00,55.4,49.6,30.21,East,88,2.0,3.0,81,0.00,,,0.00,0.0,meteohub,2013-04-07 07:57:00,
2013-04-06 22:02:00,55.8,50.7,30.22,East,86,2.0,3.0,83,0.00,,,0.00,0.0,meteohub,2013-04-07 08:02:00,
2013-04-06 22:07:00,55.2,49.5,30.22,ENE,76,2.0,3.0,81,0.00,,,0.00,0.0,meteohub,2013-04-07 08:07:00,
2013-04-06 22:12:00,55.4,49.6,30.22,ENE,76,0.0,3.0,81,0.00,,,0.00,0.0,meteohub,2013-04-07 08:12:00,
2013-04-06 22:17:00,55.0,50.4,30.22,East,91,2.0,3.0,84,0.00,,,0.00,0.0,meteohub,2013-04-07 08:17:00,
2013-04-06 22:22:00,54.5,50.0,30.22,East,88,2.0,3.0,85,0.00,,,0.00,0.0,meteohub,2013-04-07 08:22:00,
2013-04-06 22:27:00,54.1,49.8,30.22,East,87,2.0,3.0,85,0.00,,,0.00,0.0,meteohub,2013-04-07 08:27:00,
2013-04-06 22:32:00,54.5,49.8,30.22,East,88,3.0,3.0,84,0.00,,,0.00,0.0,meteohub,2013-04-07 08:32:00,
2013-04-06 22:37:00,54.5,49.5,30.22,ESE,113,1.0,5.0,83,0.00,,,0.00,0.0,meteohub,2013-04-07 08:37:00,
2013-04-06 22:42:00,54.1,49.1,30.22,ESE,115,2.0,5.0,83,0.00,,,0.00,0.0,meteohub,2013-04-07 08:42:00,
2013-04-06 22:47:00,54.3,49.3,30.22,East,81,1.0,4.0,83,0.00,,,0.00,0.0,meteohub,2013-04-07 08:47:00,
2013-04-06 22:52:00,54.7,49.3,30.22,East,86,2.0,4.0,82,0.00,,,0.00,0.0,meteohub,2013-04-07 08:52:00,
2013-04-06 22:57:00,54.3,48.9,30.22,East,88,1.0,3.0,82,0.00,,,0.00,0.0,meteohub,2013-04-07 08:57:00,
2013-04-06 23:02:00,54.0,49.3,30.22,East,85,2.0,3.0,84,0.00,,,0.00,0.0,meteohub,2013-04-07 09:02:00,
2013-04-06 23:07:00,53.4,48.7,30.22,East,84,1.0,3.0,84,0.00,,,0.00,0.0,meteohub,2013-04-07 09:07:00,
2013-04-06 23:12:00,53.2,48.6,30.22,East,86,3.0,3.0,84,0.00,,,0.00,0.0,meteohub,2013-04-07 09:12:00,
2013-04-06 23:17:00,53.2,48.9,30.23,East,85,1.0,3.0,85,0.00,,,0.00,0.0,meteohub,2013-04-07 09:17:00,
2013-04-06 23:23:00,53.4,48.7,30.23,East,96,2.0,5.0,84,0.00,,,0.00,0.0,meteohub,2013-04-07 09:23:00,
2013-04-06 23:28:00,54.1,48.7,30.22,East,88,2.0,5.0,82,0.00,,,0.00,0.0,meteohub,2013-04-07 09:28:00,
2013-04-06 23:33:00,54.0,48.9,30.22,ENE,78,3.0,5.0,83,0.00,,,0.00,0.0,meteohub,2013-04-07 09:33:00,
2013-04-06 23:38:00,54.9,49.1,30.22,East,80,2.0,5.0,81,0.00,,,0.00,0.0,meteohub,2013-04-07 09:38:00,
2013-04-06 23:43:00,54.7,49.3,30.22,East,94,2.0,7.0,82,0.00,,,0.00,0.0,meteohub,2013-04-07 09:43:00,
2013-04-06 23:48:00,54.5,48.7,30.23,East,101,1.0,7.0,81,0.00,,,0.00,0.0,meteohub,2013-04-07 09:48:00,
2013-04-06 23:53:00,54.3,48.6,30.22,East,85,3.0,7.0,81,0.00,,,0.00,0.0,meteohub,2013-04-07 09:53:00,
2013-04-06 23:58:00,54.1,49.1,30.22,East,96,1.0,3.0,83,0.00,,,0.00,0.0,meteohub,2013-04-07 09:58:00,